Location: Ottawa
(45.4170°N, 75.7000°W)
Time: 23:03:00
(UTC-04:00)

ISS - Pass Details

Date: 26 May 2021
Orbit: 417 x 422 km, 51.6° (Epoch: 13 June)

Event Time Altitude Azimuth Distance (km) Brightness Sun altitude
Rises 21:37:24 0° 297° (WNW) 2,366 1.8 -9.0°
Reaches altitude 10° 21:39:37 10° 306° (NW) 1,502 0.7 -9.2°
Maximum altitude 21:42:45 35° 14° (NNE) 704 -2.3 -9.6°
Drops below altitude 10° 21:45:53 10° 82° (E) 1,501 -1.3 -10.0°
Enters shadow 21:46:38 - 87° (E) 1,789 -1.0 -10.1°
